Palmer, AK

3:02 PM AKDT on July 26, 2017 (GMT -0800)
Palmer Municipal

Weather History for PAAQ - March, 2014

Change the Weather History Date:

Wednesday, March 26, 2014

  Actual Average Record
Temperature  
Mean Temperature 30 °F -  
Max Temperature 43 °F 39 °F 52 °F (1974)
Min Temperature 19 °F 23 °F -6 °F (1962)
Degree Days  
Heating Degree Days 34    
Moisture  
Dew Point 11 °F    
Average Humidity 49    
Maximum Humidity 71    
Minimum Humidity 27    
Precipitation  
Precipitation 0.00 in - - ()
Sea Level Pressure  
Sea Level Pressure 29.74 in    
Wind  
Wind Speed 1 mph (WNW)    
Max Wind Speed 6 mph    
Max Gust Speed -    
Visibility 10 miles    
Events      
Averages and records for this station are not official NWS values.
T = Trace of Precipitation, MM = Missing Value Source: NWS Daily Summary

Daily Weather History Graph

Daily Weather History Graph

Search for Another Location

Airport or City:

Trip Planner

Search our weather history database for the weather conditions in past years. The results will help you decide how hot, cold, wet, or windy it might be!

Date:

Astronomy

Mar. 26, 2014 Rise Set
Actual Time 7:37 AM AKDT 8:27 PM AKDT
Civil Twilight 6:53 AM AKDT 9:12 PM AKDT
Nautical Twilight 5:58 AM AKDT 10:07 PM AKDT
Astronomical Twilight 4:56 AM AKDT 11:10 PM AKDT
Moon 6:03 AM AKDT 3:12 PM AKDT
Length of Visible Light 14h 18m
Length of Day
12h 50m
Waning Crescent, 20% of the Moon is Illuminated
Mar 26
Waning Crescent
Mar 30
New
Apr 7
First Quarter
Apr 14
Full
Apr 21
Last Quarter

Hourly Weather History & Observations

Time (AKDT) Temp. Windchill Dew Point Humidity Pressure Visibility Wind Dir Wind Speed Gust Speed Precip Events Conditions
12:53 AM 26.1 °F - 10.9 °F 53% 29.72 in 10.0 mi Calm Calm - N/A   Clear
1:53 AM 25.0 °F - 12.9 °F 60% 29.72 in 10.0 mi Calm Calm - N/A   Clear
2:53 AM 21.0 °F - 12.9 °F 71% 29.73 in 10.0 mi Calm Calm - N/A   Clear
3:53 AM 21.9 °F - 12.9 °F 68% 29.72 in 10.0 mi Calm Calm - N/A   Clear
4:53 AM 19.9 °F - 12.0 °F 71% 29.73 in 10.0 mi Calm Calm - N/A   Clear
5:53 AM 19.9 °F - 12.0 °F 71% 29.73 in 10.0 mi Calm Calm - N/A   Clear
6:53 AM 19.9 °F - 10.0 °F 65% 29.73 in 10.0 mi Calm Calm - N/A   Clear
7:53 AM 19.9 °F - 9.0 °F 62% 29.73 in 10.0 mi Calm Calm - N/A   Clear
8:53 AM 19.0 °F - 10.9 °F 71% 29.73 in 10.0 mi Calm Calm - N/A   Clear
9:53 AM 25.0 °F - 14.0 °F 63% 29.74 in 10.0 mi Calm Calm - N/A   Clear
10:53 AM 30.0 °F - 12.0 °F 47% 29.73 in 10.0 mi Calm Calm - N/A   Clear
11:53 AM 32.0 °F - 12.0 °F 44% 29.73 in 10.0 mi Calm Calm - N/A   Clear
12:53 PM 36.0 °F - 9.0 °F 33% 29.74 in 10.0 mi Calm Calm - N/A   Clear
1:53 PM 37.9 °F 35.5 °F 8.1 °F 29% 29.73 in 10.0 mi Variable 3.5 mph - N/A   Clear
2:53 PM 39.9 °F 37.8 °F 8.1 °F 27% 29.74 in 10.0 mi SW 3.5 mph - N/A   Clear
3:53 PM 41.0 °F 38.0 °F 10.0 °F 28% 29.74 in 10.0 mi SSW 4.6 mph - N/A   Clear
4:53 PM 42.1 °F 40.2 °F 10.0 °F 27% 29.73 in 10.0 mi Variable 3.5 mph - N/A   Clear
5:53 PM 39.9 °F 37.8 °F 10.9 °F 31% 29.74 in 10.0 mi SW 3.5 mph - N/A   Clear
6:53 PM 39.9 °F 36.7 °F 10.9 °F 31% 29.74 in 10.0 mi SW 4.6 mph - N/A   Clear
7:53 PM 37.0 °F - 12.0 °F 36% 29.75 in 10.0 mi Calm Calm - N/A   Clear
8:53 PM 30.9 °F 27.5 °F 15.1 °F 52% 29.76 in 10.0 mi ENE 3.5 mph - N/A   Clear
9:53 PM 30.9 °F 26.2 °F 10.9 °F 43% 29.76 in 10.0 mi North 4.6 mph - N/A   Clear
10:53 PM 30.0 °F 24.1 °F 10.0 °F 43% 29.78 in 10.0 mi North 5.8 mph - N/A   Clear
11:53 PM 28.9 °F 22.8 °F 9.0 °F 43% 29.78 in 10.0 mi NNW 5.8 mph - N/A   Clear